Location: Plainartige
(45.6866°N, 1.7993°E)
Time: 09:49:31
(UTC+00:00)

Tiros 1 - Pass Details

Date: 03 June 2022
Orbit: 629 x 663 km, 48.4° (Epoch: 04 July)

Event Time Altitude Azimuth Distance (km) Brightness Sun altitude
Rises 21:52:16 0° 239° (WSW) 2,907 10.5 -16.8°
Reaches altitude 10° 21:54:35 10° 237° (WSW) 2,001 9.6 -17.0°
Maximum altitude 21:59:09 69° 155° (SSE) 675 7.0 -17.3°
Drops below altitude 10° 22:03:45 10° 72° (ENE) 2,011 9.6 -17.7°
Sets 22:06:05 0° 70° (ENE) 2,924 10.5 -17.9°
